カタログに戻る

MOLNIYA 3-13

運用中通信HEO
NORAD 11896·PAYLOAD·🇷🇺 Russia

打ち上げ Jul 18, 1980 から Plesetsk Cosmodrome

Loading…

次のパス (今後24時間)

TLE

最新Source: Space-Track

元期: Sep 10, 2026, 02:30 UTC

1 11896U 80063A   26253.10471787 -.00000343  00000-0 -80791-2 0  9994
2 11896  63.8141 278.9573 7152521 276.7902  13.5593  2.00588721338101

AllMySatでMOLNIYA 3-13をリアルタイム追跡

Download on the App Store